{"data":{"norad_id":63170,"intl_designator":"2025-046M","name":"QIANFAN-84","alt_names":[],"object_type":"PAYLOAD","status":"ACTIVE","operator":null,"country":"PRC","launch_date":"2025-03-11","launch_site_code":"WSC","launch_vehicle":null,"mission":null,"orbit_class":"UNKNOWN","rcs_meters":null,"size_class":null,"mass_kg":null,"dimensions":null,"purposes":[],"wikipedia_slug":null,"has_3d_model":false,"image_url":null,"decayed_at":null,"tle_current":{"epoch":"2026-05-25T02:02:22.164864Z","epoch_age_seconds":70821,"freshness":"FRESH","line1":"1 63170U 25046M   26145.08497876  .00000139  00000+0  19621-3 0  9995","line2":"2 63170  88.9691 303.1171 0016106  20.4110 339.7681 13.51030618 69457","mean_motion":13.51030618,"eccentricity":0.0016106,"inclination_deg":88.9691,"raan_deg":303.1171,"arg_perigee_deg":20.411,"mean_anomaly_deg":339.7681,"bstar":0.00019621,"rev_number":6945,"period_min":106.5852972401,"perigee_km":1056.47557258,"apogee_km":1080.462580073,"semimajor_km":7446.6060763265,"source":"CELESTRAK","updated_at":"2026-05-25T13:38:03.541014Z"}}}